Location: Newark
(13.7497°N, 100.4964°E)
Time: 19:18:10
(UTC+00:00)

Envisat - Visible Passes

Search period start: 15 October 2019 00:00
Search period end: 25 October 2019 00:00
Orbit: 764 x 766 km, 98.1° (Epoch: 15 October)

Date Brightness Start Highest point End Pass type
(mag) Time Alt. Az. Time Alt. Az. Time Alt. Az.
15 Oct 4.1 12:07:12 10° S 12:12:03 46° W 12:16:55 10° NNW visible
16 Oct 3.0 11:30:22 10° SSE 11:35:22 62° ENE 11:40:22 10° N visible
17 Oct 5.4 12:33:37 10° SSW 12:37:33 23° W 12:41:29 10° NW visible
18 Oct 3.5 11:55:48 10° S 12:00:48 64° WSW 12:05:50 10° NNW visible
19 Oct 3.3 11:19:20 10° SSE 11:24:09 45° ENE 11:28:58 10° N visible
19 Oct 6.3 13:02:04 10° WSW 13:03:04 11° W 13:04:05 10° W visible
20 Oct 4.9 12:21:51 10° SSW 12:26:17 30° W 12:30:43 10° NW visible
21 Oct 3.0 11:44:29 10° S 11:49:34 86° WSW 11:54:38 10° NNW visible
22 Oct 6.0 12:49:00 10° SW 12:51:48 15° W 12:54:37 10° WNW visible
23 Oct 4.3 12:10:16 10° S 12:15:02 41° W 12:19:47 10° NNW visible
24 Oct 2.9 11:33:17 10° SSE 11:38:20 70° ENE 11:43:22 10° N visible
